[[{"header":{"parameterUnit":"m.s-1","parameterCategory":1,"la1":30.2991,"la2":30.254,"lo1":-89.0895,"lo2":-89.0444,"dy":0.0017,"dx":0.0017,"nx":28,"ny":28,"refTime":"2024-05-14T09:00:00:Z","depth":0,"parameterNumber":2,"parameterNumberName":"U-component_of_WINDS"},"data":[0,0,0,0,0,0,0,0,0,0,0,0,0,0,0,0,0,0,0,0,0,0,0,0,0,0,0,0,0,0,0,0,0,0,0,0,0,0,0,0,0,0,0,0,0,0,0,0,0,0,0,0,0,0,0,0,0,0,-3.4036,-3.4038,0,-3.4279,-3.4281,-3.4284,-3.4394,-3.4394,-3.4394,-3.4394,-3.465,-3.4657,-3.4664,0,0,0,0,0,0,0,0,0,0,0,0,0,-3.3674,-3.368,-3.4035,-3.4038,-3.4041,-3.4278,-3.4282,-3.4285,-3.4394,-3.4394,-3.4394,-3.4393,-3.4648,-3.4656,-3.4665,0,0,0,0,0,0,0,0,0,0,0,0,0,-3.3865,-3.3682,-3.4035,-3.4124,-3.4135,-3.4277,-3.4282,-3.4286,-3.4395,-3.4394,-3.4394,-3.4393,-3.4645,-3.4656,-3.4666,-3.474,0,0,-3.4699,-3.4703,0,0,0,0,0,0,0,0,-3.3854,-3.3879,-3.4108,-3.4119,-3.4131,-3.4306,-3.4248,-3.4438,-3.4395,-3.4296,-3.4394,-3.4393,-3.4537,-3.4556,-3.4603,-3.4752,-3.4763,-3.47,-3.4706,-3.4711,-3.4714,0,0,0,0,0,0,0,-3.3841,-3.3869,-3.4132,-3.4112,-3.4125,-3.4155,-3.4182,-3.4285,-3.4416,-3.4305,-3.4313,-3.434,-3.4543,-3.4592,-3.461,-3.4767,-3.4699,-3.4709,-3.4715,-3.472,-3.4992,-3.4992,0,0,0,0,0,0,-3.3812,-3.3857,-3.4124,-3.4139,-3.3988,-3.4162,-3.4192,-3.425,-3.4415,-3.444,-3.434,-3.4344,-3.4574,-3.4597,-3.4619,-3.4718,-3.4711,-3.4721,-3.4727,-3.4991,-3.4992,-3.4993,0,0,0,0,0,0,-3.3804,-3.3835,-3.4114,-3.4001,-3.4038,-3.4169,-3.4233,-3.4255,-3.4305,-3.4442,-3.4467,-3.4366,-3.4575,-3.4604,-3.4709,-3.4728,-3.4725,-3.4735,-3.499,-3.4991,-3.4992,-3.4914,0,0,0,0,0,0,-3.3793,-3.3831,-3.3859,-3.4,-3.4044,-3.4197,-3.4234,-3.426,-3.4322,-3.433,-3.4473,-3.4496,-3.4577,-3.4693,-3.472,-3.4743,-3.4743,-3.4989,-3.499,-3.4992,-3.4915,-3.4912,-3.4909,0,0,0,0,0,-3.378,-3.3829,-3.3859,-3.3891,-3.4081,-3.4198,-3.4224,-3.4313,-3.4323,-3.4353,-3.4441,-3.4492,-3.4721,-3.4702,-3.4734,-3.476,-3.4988,-3.499,-3.4992,-3.4916,-3.4913,-3.491,0,0,0,0,0,0,-3.3689,-3.3849,-3.3885,-3.398,-3.4074,-3.4216,-3.4257,-3.4306,-3.4401,-3.4405,-3.4514,-3.4546,-3.4641,-3.4712,-3.4688,-3.4842,-3.4859,-3.4868,-3.4791,-3.4789,-3.4786,-3.4767,-3.4752,0,0,0,0,0,-3.3679,-3.3758,-3.3895,-3.3967,-3.4012,-3.4126,-3.418,-3.4241,-3.4344,-3.4385,-3.4481,-3.4581,-3.4677,-3.4737,-3.4832,-3.4926,-3.496,-3.496,-3.4957,-3.4954,-3.496,-3.5017,-3.5019,-3.4999,-3.4999,-3.4999,0,0,-3.3661,-3.3759,-3.3803,-3.3951,-3.4031,-3.4113,-3.4159,-3.4244,-3.4307,-3.4399,-3.4503,-3.4577,-3.4697,-3.4796,-3.4846,-3.4858,-3.4973,-3.4957,-3.4953,-3.4961,-3.5019,-3.5021,-3.5022,-3.5,-3.5,-3.5,0,0,-3.3671,-3.3752,-3.382,-3.3898,-3.4018,-3.4094,-3.411,-3.4245,-3.4297,-3.4402,-3.4474,-3.4552,-3.4713,-3.4795,-3.4858,-3.4899,-3.495,-3.4927,-3.4912,-3.4966,-3.4967,-3.4969,-3.4985,-3.4989,-3.4932,-3.4932,-3.4932,0,-3.3634,-3.3758,-3.3849,-3.393,-3.3994,-3.4079,-3.415,-3.4223,-3.4368,-3.4412,-3.4424,-3.4627,-3.4714,-3.4835,-3.4844,-3.4893,-3.4917,-3.4911,-3.4959,-3.4962,-3.4966,-3.4982,-3.4987,-3.4929,-3.4929,-3.493,-3.493,0,-3.3707,-3.3792,-3.3834,-3.3969,-3.4037,-3.4113,-3.4218,-3.4277,-3.4332,-3.4407,-3.4515,-3.4622,-3.474,-3.4774,-3.4829,-3.4903,-3.4907,-3.4938,-3.4958,-3.4962,-3.4979,-3.4986,-3.4924,-3.4925,-3.4926,-3.4927,0,0,-3.3667,-3.385,-3.3864,-3.3926,-3.4064,-3.4133,-3.4214,-3.4327,-3.4376,-3.4474,-3.4546,-3.468,-3.4709,-3.478,-3.4846,-3.4893,-3.492,-3.4919,-3.4924,-3.4916,-3.501,-3.4986,-3.4991,-3.4955,-3.4956,-3.4957,-3.5,0,-3.3695,-3.3839,-3.3924,-3.4035,-3.4115,-3.4197,-3.4268,-3.4362,-3.4434,-3.4516,-3.4598,-3.4691,-3.4722,-3.4766,-3.4816,-3.4906,-3.494,-3.4904,-3.5025,-3.5028,-3.4992,-3.5,-3.4975,-3.501,-3.5007,-3.5008,-3.5009,0,-3.3747,-3.384,-3.3957,-3.4086,-3.4124,-3.4185,-3.4296,-3.4371,-3.4481,-3.4531,-3.461,-3.4676,-3.4767,-3.478,-3.4909,-3.4882,-3.4937,-3.4989,-3.4993,-3.5007,-3.5018,-3.5016,-3.5023,-3.5028,-3.5021,-3.502,-3.5019,0,-3.3705,-3.386,-3.3951,-3.4002,-3.4155,-3.4196,-3.4262,-3.4371,-3.4433,-3.4532,-3.4574,-3.4682,-3.4742,-3.4826,-3.492,-3.4921,-3.5041,-3.5061,-3.5087,-3.5084,-3.5108,-3.5105,-3.5125,-3.5143,-3.5143,-3.5143,-3.5143,0,-3.3729,-3.3797,-3.3934,-3.3989,-3.407,-3.4168,-3.4246,-3.432,-3.4415,-3.4489,-3.4568,-3.4637,-3.4757,-3.4841,-3.4916,-3.5012,-3.5039,-3.5084,-3.5103,-3.5077,-3.5071,-3.5114,-3.5114,-3.5144,-3.5144,-3.5144,-3.5143,0,-3.3696,-3.3789,-3.3893,-3.4028,-3.4064,-3.4118,-3.4235,-3.4294,-3.4371,-3.4463,-3.4491,-3.4612,-3.4715,-3.4818,-3.4958,-3.5009,-3.5104,-3.5129,-3.5065,-3.5076,-3.5096,-3.5093,-3.5144,-3.5157,-3.5165,-3.5165,-3.5164,0,-3.3704,-3.3758,-3.3898,-3.3951,-3.4015,-3.41,-3.4163,-3.4263,-3.4327,-3.4455,-3.4499,-3.4608,-3.4699,-3.4861,-3.4964,-3.5072,-3.5102,-3.5112,-3.5119,-3.5091,-3.5103,-3.5098,-3.5105,-3.5109,-3.5109,-3.5108,-3.5108,0,-3.3709,-3.3752,-3.3839,-3.3942,-3.4014,-3.4101,-3.4191,-3.4231,-3.4349,-3.4417,-3.4521,-3.4592,-3.4734,-3.4842,-3.4961,-3.5034,-3.5092,-3.5105,-3.5117,-3.509,-3.5051,-3.5073,-3.5057,-3.5103,-3.5104,-3.5104,-3.5104,-3.5104,-3.3698,-3.375,-3.3856,-3.395,-3.4027,-3.4109,-3.4171,-3.4254,-3.4342,-3.4462,-3.4517,-3.4622,-3.4733,-3.49,-3.4971,-3.5058,-3.5073,-3.509,-3.5094,-3.5097,-3.5091,-3.5036,-3.508,-3.5081,-3.5081,-3.5081,-3.5081,0,-3.3707,-3.3779,-3.3864,-3.3986,-3.406,-3.4104,-3.4206,-3.4267,-3.4357,-3.4453,-3.4541,-3.4662,-3.4767,-3.4878,-3.4991,-3.5039,-3.5068,-3.5065,-3.5063,-3.5079,-3.5071,-3.5049,-3.5039,-3.5039,-3.5039,-3.5039,-3.5039,-3.5039,-3.3721,-3.3811,-3.3867,-3.3997,-3.4071,-3.4171,-3.4226,-3.4303,-3.438,-3.451,-3.4596,-3.4667,-3.477,-3.4891,-3.499,-3.5021,-3.5059,-3.5048,-3.5086,-3.5076,-3.5079,-3.5082,-3.5062,-3.5055,-3.5055,-3.5087,-3.5087,-3.5088]},{"header":{"parameterUnit":"m.s-1","parameterCategory":1,"la1":30.2991,"la2":30.254,"lo1":-89.0895,"lo2":-89.0444,"dy":0.0017,"dx":0.0017,"nx":28,"ny":28,"refTime":"2024-05-14T09:00:00:Z","depth":0,"parameterNumber":3,"parameterNumberName":"V-component_of_WINDS"},"data":[0,0,0,0,0,0,0,0,0,0,0,0,0,0,0,0,0,0,0,0,0,0,0,0,0,0,0,0,0,0,0,0,0,0,0,0,0,0,0,0,0,0,0,0,0,0,0,0,0,0,0,0,0,0,0,0,0,0,9.9319,9.932,0,9.9422,9.9423,9.9424,9.9326,9.9322,9.9318,9.9315,9.9414,9.942,9.9426,0,0,0,0,0,0,0,0,0,0,0,0,0,9.9031,9.9037,9.9319,9.932,9.9322,9.9421,9.9423,9.9424,9.9327,9.9322,9.9317,9.9313,9.9412,9.9419,9.9427,0,0,0,0,0,0,0,0,0,0,0,0,0,9.9147,9.9038,9.9319,9.9285,9.9283,9.9421,9.9423,9.9424,9.9328,9.9322,9.9316,9.9311,9.9409,9.9418,9.9428,9.9602,0,0,9.9456,9.9461,0,0,0,0,0,0,0,0,9.914,9.9157,9.9289,9.9288,9.9286,9.9355,9.9357,9.9484,9.9329,9.9311,9.9314,9.9308,9.9399,9.9409,9.944,9.9607,9.9611,9.9457,9.9463,9.9467,9.947,0,0,0,0,0,0,0,9.9132,9.9152,9.9359,9.9291,9.9289,9.9262,9.9272,9.9381,9.9386,9.9312,9.9305,9.9319,9.9397,9.9432,9.9442,9.9613,9.9457,9.9465,9.9471,9.9475,9.9921,9.9927,0,0,0,0,0,0,9.9129,9.9146,9.9356,9.9362,9.9197,9.9272,9.9283,9.9339,9.9384,9.9386,9.9324,9.9314,9.9418,9.9431,9.9445,9.9647,9.9467,9.9476,9.9481,9.9915,9.9922,9.9929,0,0,0,0,0,0,9.9123,9.9149,9.9352,9.9253,9.9277,9.9283,9.9346,9.9344,9.9378,9.9393,9.9393,9.9359,9.9414,9.9432,9.9563,9.9649,9.948,9.9489,9.9907,9.9917,9.9925,10.0056,0,0,0,0,0,0,9.9115,9.9147,9.9216,9.9255,9.9282,9.9471,9.9352,9.935,9.9396,9.9384,9.9426,9.9428,9.9411,9.9549,9.9572,9.9659,9.9496,9.9899,9.9911,9.9922,10.0044,10.0069,10.009,0,0,0,0,0,9.9105,9.9249,9.922,9.9246,9.9369,9.9476,9.9491,9.9471,9.9403,9.947,9.9479,9.9426,9.9638,9.9564,9.9589,9.968,9.9894,9.9908,9.9922,10.0034,10.0064,10.009,0,0,0,0,0,0,9.9219,9.9254,9.9222,9.9383,9.9428,9.946,9.9544,9.9505,9.9568,9.9554,9.9524,9.9534,9.9672,9.969,9.9607,9.9848,9.9754,9.9774,9.9831,9.986,9.9882,9.9873,9.9504,0,0,0,0,0,9.9263,9.935,9.9375,9.9514,9.9538,9.9538,9.9584,9.9564,9.9608,9.9626,9.9644,9.9688,9.9762,9.9813,9.9884,10.0048,10.0052,10.0122,10.0145,10.0164,10.018,10.0262,10.0291,9.9975,9.9974,9.9974,0,0,9.9354,9.9384,9.9441,9.9538,9.957,9.9656,9.9554,9.9652,9.9714,9.964,9.9764,9.9779,9.9825,9.9971,10.0037,9.999,10.0269,10.0182,10.0197,10.0202,10.0279,10.0309,10.0335,9.9984,9.9982,9.9981,0,0,9.9564,9.9598,9.9715,9.9749,9.9799,9.9797,9.9825,9.9863,9.987,9.9994,9.9938,10.0012,10.0144,10.0177,10.0211,10.043,10.0381,10.0454,10.0572,10.0652,10.0677,10.0699,10.0771,10.0798,10.047,10.0471,10.0471,0,9.967,9.9802,9.9779,9.988,9.9922,9.986,9.9975,10.0008,10.0079,10.0107,10.0055,10.0216,10.0243,10.0393,10.0446,10.0478,10.0505,10.0447,10.0676,10.0697,10.0717,10.0786,10.0814,10.0479,10.0478,10.0477,10.0476,0,9.9927,10.0018,10.0106,10.0175,10.0227,10.0335,10.0326,10.0381,10.0356,10.0359,10.0482,10.0513,10.0585,10.0621,10.0598,10.0767,10.0735,10.0681,10.0584,10.0756,10.0819,10.0846,10.049,10.0487,10.0485,10.0483,0,0,10.021,10.0264,10.0296,10.0324,10.0373,10.0442,10.0545,10.0617,10.0662,10.0712,10.0794,10.0906,10.0854,10.0892,10.0873,10.0944,10.1107,10.0879,10.0879,10.0915,10.1288,10.1326,10.1357,10.1078,10.1083,10.1087,10.1282,0,10.0417,10.0597,10.0578,10.0748,10.0828,10.0769,10.0857,10.0895,10.09,10.0967,10.0971,10.1048,10.0977,10.0999,10.1067,10.1073,10.1181,10.106,10.1149,10.1152,10.1134,10.1391,10.1432,10.1615,10.1308,10.1312,10.1315,0,10.0683,10.0741,10.0918,10.095,10.0983,10.1064,10.1125,10.1192,10.1232,10.1229,10.1272,10.1238,10.1337,10.1243,10.1376,10.1293,10.1329,10.1337,10.1344,10.1347,10.1241,10.1396,10.1674,10.1699,10.1355,10.1352,10.1349,0,10.0864,10.0988,10.1108,10.1135,10.1177,10.1233,10.1253,10.1288,10.133,10.1384,10.141,10.1475,10.1509,10.1559,10.1542,10.1476,10.1677,10.1582,10.1673,10.1673,10.1714,10.1711,10.1997,10.1747,10.1746,10.1746,10.1745,0,10.1094,10.1204,10.1189,10.1263,10.1382,10.1358,10.1476,10.1488,10.1519,10.1591,10.1545,10.1613,10.1589,10.1655,10.1643,10.1751,10.1769,10.1767,10.1761,10.1768,10.1767,10.1787,10.1772,10.1753,10.1752,10.175,10.1749,0,10.1316,10.1312,10.1438,10.1467,10.1476,10.1562,10.1585,10.1652,10.1652,10.1744,10.1764,10.1764,10.1839,10.1828,10.1912,10.1903,10.2036,10.2019,10.2023,10.2017,10.2106,10.2096,10.241,10.2447,10.2179,10.2181,10.2184,0,10.1461,10.1543,10.158,10.1625,10.1648,10.1723,10.1765,10.1744,10.179,10.1839,10.19,10.197,10.2025,10.2147,10.2152,10.2215,10.2194,10.23,10.2203,10.2205,10.2189,10.2182,10.2187,10.2318,10.2321,10.2323,10.2325,0,10.1716,10.1709,10.1773,10.1836,10.1888,10.1936,10.1979,10.2019,10.2001,10.2054,10.213,10.2173,10.2257,10.2325,10.2383,10.24,10.2358,10.2356,10.2379,10.2385,10.2381,10.2378,10.2069,10.2348,10.2346,10.2344,10.2343,10.2342,10.19,10.1968,10.2003,10.2075,10.2105,10.2145,10.2208,10.2215,10.2279,10.2345,10.2329,10.2413,10.2446,10.2519,10.2543,10.2606,10.2566,10.2602,10.261,10.2617,10.2625,10.2376,10.2617,10.2617,10.2616,10.2615,10.2615,0,10.2148,10.2167,10.2233,10.2294,10.2349,10.2307,10.2351,10.2399,10.2474,10.2509,10.2563,10.2647,10.2713,10.2724,10.2785,10.2833,10.2815,10.2849,10.2843,10.2846,10.266,10.2631,10.2863,10.2863,10.2862,10.2862,10.2862,10.2862,10.2283,10.2394,10.239,10.2514,10.2531,10.2613,10.2641,10.2677,10.2704,10.28,10.2854,10.2861,10.2884,10.2947,10.3003,10.3004,10.3026,10.3067,10.306,10.2885,10.286,10.2836,10.2809,10.3074,10.3074,10.324,10.3242,10.3243]}]]